Flag for Switzerland Weather past 2 weeks in Sarnen, Obwalden, Switzerland

Now
50 °F

Cool.


Feels Like: 45 °F
Forecast: 39 / 49 °F
Wind: 12 mph from Southwest

Location: Giswil

Current Time: Dec 20, 2014 at 12:56:02 AM

Latest Report: Dec 20, 2014 at 12:00 AM


Visibility: N/A

Pressure: 30.29 "Hg

Humidity: 84%

Dew point: 45 °F

Location of SarnenLocation

Historic Weather in Sarnen — Graph

°F

Sarnen temperature yesterday

Maximum temperature yesterday: 50 °F (at 10:00 PM)
Minimum temperature yesterday: 36 °F (at 10:00 AM)
Average temperature yesterday: 42 °F

Past Weeks' High & Low Weather Summary

 TemperatureHumidityPressure
High50 °F (Dec 19, 10:00 PM)100% (Dec 4, 11:00 PM)30.49 "Hg (Dec 4, 11:00 PM)
Low26 °F (Dec 12, 8:00 AM)48% (Dec 11, 7:00 PM)29.90 "Hg (Dec 12, 9:00 PM)
Average39 °F95%30.15 "Hg
* Reported Dec 4 11:00 PM — Dec 19 11:00 PM, Sarnen, Weather by CustomWeather, © 2014

Note: Actual official high and low records may vary slightly from our data, if they occured in-between our weather recording intervals... More about our weather records

Advertising

Sarnen weather history for previous 24 hours

 ConditionsComfort  
Time TempWeatherWind HumidityBarometerVisibility
11:00 PM
Dec 19
48 °FCool.3 mph94%30.29 "HgN/A
10:00 PM50 °FCool.5 mph76%30.27 "HgN/A
9:00 PM43 °FQuite cool.5 mph100%30.26 "HgN/A
8:00 PM40 °FQuite cool.2 mph100%30.23 "HgN/A
7:00 PM41 °FQuite cool.3 mph100%30.22 "HgN/A
6:00 PM37 °FChilly.2 mph100%30.23 "HgN/A
5:00 PM42 °FQuite cool.1 mph100%30.21 "HgN/A
4:00 PM47 °FCool.2 mph100%30.20 "HgN/A
3:00 PM49 °FCool.1 mph97%30.20 "HgN/A
2:00 PM47 °FCool.1 mph100%30.23 "HgN/A
1:00 PM47 °FCool.2 mph100%30.24 "HgN/A
12:00 PM42 °FQuite cool.3 mph100%30.28 "HgN/A
11:00 AM39 °FChilly.3 mph100%30.29 "HgN/A
10:00 AM36 °FChilly.1 mph100%30.31 "HgN/A
9:00 AM37 °FChilly.2 mph100%30.32 "HgN/A
8:00 AM38 °FChilly.1 mph100%30.30 "HgN/A
7:00 AM39 °FChilly.3 mph100%30.30 "HgN/A
6:00 AM39 °FChilly.1 mph100%30.29 "HgN/A
5:00 AM41 °FQuite cool.2 mph100%30.29 "HgN/A
3:00 AM42 °FQuite cool.2 mph100%30.32 "HgN/A
2:00 AM44 °FQuite cool.No wind100%30.30 "HgN/A
1:00 AM44 °FQuite cool.1 mph100%30.29 "HgN/A
12:00 AM44 °FQuite cool.1 mph100%30.29 "HgN/A
Weather by CustomWeather, © 2014

See weather overviewHow to use our weather pages